Vorticity
14 19 2 13 14 23 14 -11 -9 19 34 12 1 10 12 3 9 12 11 -2 -3 10 7 -2 16 -6 18 1 -1 7 4 2 1 0 1 3 10 15 14 15 7 4 6 5
36 4 19 8 7 13 4 6 7 14 -9 -15 1 21 20 23 18 -4 -3 31 -0 8 11 13 3 -1 10 7 3 -1 8 2 1 1 2 0 -3 -3 -2 4 5 5 5 5
18 10 2 -12 25 12 5 5 7 8 13 24 -16 16 13 0 42 17 4 -3 23 12 10 2 16 11 11 7 6 -3 -1 8 7 1 3 3 1 3 5 6 8 10 11 10
7 9 23 -3 12 14 32 7 10 6 -4 8 -2 5 17 14 24 7 35 0 27 -7 -24 28 -3 27 7 7 2 -3 -1 -4 10 10 1 -0 -1 -5 1 2 5 2 -3 4
14 4 12 10 1 1 15 27 33 10 -2 5 27 15 35 -5 11 34 9 11 24 -2 11 14 4 -30 45 6 -1 4 -2 4 7 10 14 7 0 -1 -1 3 2 4 2 2
15 24 -1 34 13 5 34 5 13 25 12 43 -1 -2 18 13 -12 37 -18 33 15 1 -9 20 21 12 -5 52 1 6 7 5 -1 -1 15 19 8 4 2 2 2 1 3 4
21 29 16 51 12 10 8 13 49 42 40 -4 32 42 -28 21 -6 -6 32 25 5 11 29 4 13 4 -5 -1 52 15 11 4 7 -1 12 4 10 8 5 3 4 4 4 -0
0 7 -13 -11 5 23 3 -1 -17 28 11 -1 34 3 -4 4 35 -8 -10 8 0 8 4 36 19 37 -10 -10 -9 30 30 17 -4 -15 0 10 8 12 9 5 4 2 1 1
18 -9 20 23 17 17 -37 26 -24 -1 23 35 -9 -12 58 -8 12 34 -8 1 5 -7 -2 1 43 39 -6 5 21 7 -6 -2 5 11 8 15 9 4 5 5 4 8 9 13
2 14 12 2 41 15 -15 46 41 16 15 24 9 2 -13 21 0 2 6 23 19 -15 21 -8 4 25 42 17 10 14 17 3 3 -5 0 9 3 3 5 6 7 1 6 5
3 3 -34 11 -21 20 8 34 41 15 22 -1 7 15 21 -12 2 -1 38 57 75 50 36 35 24 -9 10 25 25 11 -7 -1 -1 14 18 8 8 10 6 3 1 2 4 17
-0 18 1 9 30 -19 27 -27 -7 21 -16 0 12 11 -14 -38 17 13 15 25 11 22 26 17 21 7 0 7 18 18 23 34 19 7 27 8 11 2 1 7 22 30 25 8
5 -17 26 22 14 -37 8 5 -1 9 24 12 17 -7 19 -29 -10 -23 6 17 -9 7 4 7 10 26 21 8 12 15 12 20 27 22 -8 19 37 17 12 23 11 18 15 12
21 24 6 -28 -32 -7 6 -1 6 13 13 -12 -2 -5 -14 34 1 12 3 37 -5 22 -13 -5 -3 8 11 4 18 9 -5 8 14 16 11 12 13 25 25 19 15 9 7 9
0 13 4 8 4 -5 4 4 -1 7 8 14 -1 8 8 9 6 11 15 18 18 16 45 11 17 22 16 3 16 7 10 12 -5 3 6 15 16 1 4 5 15 20 14 14
22 16 -19 8 8 21 22 3 2 -3 1 7 21 12 -0 18 4 2 6 11 42 2 14 -20 15 49 -23 8 21 21 20 11 2 2 -3 -11 -9 7 -1 0 -0 6 14 17
29 26 10 29 28 -7 50 53 43 14 8 16 41 7 5 11 -3 -0 5 5 3 35 22 -2 34 -23 11 57 13 -24 7 12 14 18 11 22 5 -9 -14 -1 2 3 3 0
5 10 12 -1 38 21 -13 -3 8 9 8 10 2 1 21 22 23 6 0 -1 2 8 15 5 0 12 4 -4 0 4 8 6 11 6 10 9 12 17 6 6 9 5 4 5
13 23 -10 -5 1 -24 51 -7 11 9 13 10 16 24 17 8 3 6 16 9 11 3 1 11 29 8 17 15 1 4 18 3 -5 6 3 6 13 13 15 16 20 20 12 8
21 6 21 -4 5 -1 -15 -7 0 -2 26 14 2 -3 4 13 19 19 13 10 5 3 9 3 -1 8 -4 14 22 24 9 15 24 16 7 9 9 5 9 13 14 13 15 15
1 5 34 18 -2 14 -3 7 20 33 -12 2 11 21 11 13 6 -5 -4 5 4 8 13 12 11 9 4 9 2 -1 12 8 7 12 10 6 -1 7 10 12 12 14 14 14
-9 10 -2 22 14 33 -5 10 32 -18 20 19 -3 14 10 -2 1 1 7 9 -14 2 7 6 11 12 21 16 15 7 4 14 -2 -1 3 18 14 14 6 8 16 11 15 10
30 15 -12 -12 -21 -35 -39 -17 -3 24 8 8 11 8 11 8 6 -1 -2 6 7 4 3 4 5 9 9 10 9 13 18 13 13 7 3 18 24 -6 10 6 7 21 17 17
-3 7 3 8 32 13 6 27 19 -5 -15 3 5 2 5 2 1 9 -3 -2 17 12 15 13 18 15 13 4 8 6 8 7 12 16 19 14 15 10 -1 17 8 8 8 18
-1 -0 7 11 18 13 1 8 9 22 5 11 9 5 5 9 13 15 17 13 17 19 16 14 11 11 15 11 10 8 6 9 10 13 16 22 11 6 4 1 6 11 9 11
37 19 27 16 4 4 7 1 7 10 10 -3 5 12 14 13 18 17 21 18 10 8 10 10 10 14 20 20 18 15 9 8 10 11 12 18 19 7 7 7 2 4 8 16
Height
3096 3097 3091 3095 3098 3099 3098 3099 3095 3096 3106 3110 3106 3107 3109 3113 3114 3116 3120 3123 3126 3130 3136 3138 3139 3141 3140 3142 3148 3154 3158 3161 3162 3163 3164 3167 3169 3171 3173 3175 3178 3180 3183 3184
3091 3087 3092 3094 3095 3096 3094 3093 3086 3091 3096 3100 3098 3096 3099 3103 3104 3107 3111 3115 3118 3123 3128 3131 3134 3135 3133 3134 3139 3145 3152 3154 3157 3158 3161 3162 3165 3167 3169 3171 3173 3175 3177 3180
3088 3086 3085 3086 3088 3089 3086 3085 3087 3087 3092 3091 3091 3084 3087 3089 3094 3098 3102 3107 3111 3115 3119 3124 3126 3127 3128 3124 3131 3136 3141 3147 3151 3154 3155 3157 3158 3160 3161 3164 3167 3169 3170 3173
3084 3081 3080 3078 3078 3084 3077 3082 3083 3082 3087 3082 3087 3078 3080 3082 3084 3089 3091 3097 3103 3108 3112 3115 3119 3121 3121 3119 3122 3128 3133 3137 3142 3146 3148 3150 3152 3153 3156 3159 3162 3164 3166 3167
3079 3077 3076 3073 3071 3073 3070 3074 3076 3075 3077 3075 3078 3078 3070 3076 3075 3081 3086 3089 3093 3099 3103 3105 3111 3114 3116 3114 3114 3118 3123 3128 3132 3135 3140 3142 3144 3148 3151 3152 3154 3157 3159 3160
3078 3074 3073 3068 3068 3069 3069 3067 3065 3066 3069 3065 3068 3072 3066 3068 3071 3076 3081 3085 3089 3093 3095 3099 3102 3104 3107 3109 3109 3110 3114 3119 3124 3127 3130 3133 3137 3140 3143 3144 3146 3149 3151 3153
3071 3069 3068 3064 3068 3066 3067 3067 3060 3060 3060 3056 3061 3064 3059 3064 3068 3071 3072 3079 3081 3081 3083 3087 3092 3095 3097 3100 3103 3104 3108 3111 3116 3118 3121 3124 3128 3132 3134 3136 3137 3140 3141 3143
3076 3065 3068 3067 3068 3064 3061 3064 3065 3057 3057 3054 3056 3055 3056 3063 3062 3064 3065 3068 3073 3075 3076 3076 3078 3086 3090 3092 3097 3100 3100 3102 3106 3109 3112 3114 3118 3121 3123 3126 3128 3129 3130 3132
3077 3069 3064 3066 3064 3066 3057 3055 3057 3056 3053 3051 3052 3052 3054 3059 3061 3062 3063 3065 3067 3071 3073 3071 3070 3073 3078 3081 3085 3091 3094 3096 3096 3099 3102 3105 3108 3109 3111 3115 3117 3118 3119 3120
3081 3069 3064 3058 3059 3060 3060 3056 3052 3055 3055 3052 3050 3051 3054 3055 3058 3061 3061 3062 3060 3063 3065 3067 3066 3065 3066 3069 3075 3080 3081 3083 3087 3090 3091 3095 3099 3099 3100 3103 3104 3106 3109 3110
3080 3076 3062 3061 3060 3059 3052 3052 3055 3056 3057 3059 3062 3051 3052 3054 3055 3053 3053 3050 3048 3047 3052 3057 3060 3061 3061 3062 3065 3064 3067 3070 3073 3077 3083 3085 3087 3088 3088 3090 3093 3094 3099 3100
3078 3073 3065 3060 3059 3061 3059 3058 3061 3061 3062 3059 3060 3049 3047 3047 3050 3050 3048 3047 3046 3042 3044 3047 3049 3052 3055 3055 3055 3056 3058 3062 3064 3066 3069 3073 3075 3078 3081 3083 3084 3083 3085 3089
3076 3073 3067 3054 3058 3056 3059 3061 3064 3064 3062 3062 3059 3045 3043 3041 3048 3050 3046 3043 3042 3042 3042 3043 3043 3044 3046 3048 3050 3052 3052 3052 3054 3058 3058 3060 3065 3069 3072 3073 3073 3074 3076 3077
3074 3071 3072 3068 3065 3064 3056 3060 3062 3062 3060 3059 3057 3044 3042 3038 3042 3044 3044 3041 3037 3036 3038 3038 3039 3040 3041 3041 3043 3046 3049 3050 3050 3051 3052 3053 3056 3057 3060 3063 3064 3065 3066 3067
3070 3067 3067 3063 3061 3059 3056 3052 3054 3055 3057 3054 3052 3046 3039 3039 3037 3040 3038 3039 3038 3031 3028 3031 3032 3033 3034 3035 3036 3037 3040 3042 3044 3045 3045 3046 3048 3049 3050 3052 3053 3055 3056 3058
3066 3062 3060 3055 3056 3055 3050 3048 3048 3048 3048 3045 3043 3039 3037 3036 3035 3032 3032 3033 3028 3028 3029 3028 3023 3027 3024 3027 3031 3032 3032 3034 3035 3035 3036 3037 3038 3040 3042 3043 3043 3044 3045 3047
3058 3057 3059 3052 3052 3049 3044 3040 3040 3043 3045 3044 3041 3038 3032 3030 3030 3029 3026 3025 3022 3024 3027 3026 3026 3025 3022 3022 3025 3023 3024 3024 3026 3025 3025 3027 3029 3031 3033 3033 3034 3034 3034 3035
3053 3056 3058 3051 3051 3052 3042 3041 3040 3038 3038 3035 3034 3032 3029 3027 3027 3029 3020 3018 3020 3021 3022 3020 3018 3017 3018 3016 3014 3014 3017 3016 3015 3016 3015 3014 3015 3018 3021 3021 3022 3023 3024 3024
3051 3054 3054 3053 3049 3044 3040 3039 3036 3035 3034 3030 3028 3026 3024 3023 3021 3022 3019 3017 3013 3011 3010 3010 3010 3012 3012 3011 3007 3004 3004 3006 3005 3005 3005 3005 3005 3006 3007 3007 3007 3010 3010 3010
3049 3050 3049 3048 3047 3042 3038 3034 3032 3031 3030 3026 3024 3022 3018 3015 3012 3011 3011 3012 3009 3008 3005 3003 3005 3004 3003 3002 2998 2998 2998 2998 2999 2998 2995 2995 2995 2995 2995 2995 2995 2995 2996 2997
3048 3047 3045 3043 3041 3035 3032 3030 3028 3029 3029 3022 3021 3019 3015 3013 3010 3005 3002 3002 3002 2999 2997 2996 2994 2993 2993 2992 2990 2989 2989 2989 2990 2987 2984 2984 2984 2984 2983 2982 2983 2983 2983 2983
3044 3044 3041 3039 3036 3033 3030 3027 3029 3025 3021 3019 3017 3015 3011 3008 3003 2999 2998 2997 2994 2990 2984 2983 2981 2979 2980 2981 2979 2977 2976 2978 2975 2973 2974 2975 2974 2974 2973 2971 2970 2972 2972 2971
3037 3037 3035 3036 3026 3024 3023 3024 3023 3020 3014 3012 3010 3008 3005 3002 2997 2993 2992 2988 2984 2980 2977 2973 2968 2964 2963 2965 2965 2963 2965 2963 2961 2960 2961 2963 2963 2961 2963 2961 2959 2959 2960 2959
3029 3030 3027 3025 3019 3018 3018 3017 3016 3013 3010 3007 3005 3001 2997 2993 2991 2987 2983 2979 2975 2971 2966 2960 2956 2952 2949 2949 2948 2948 2947 2947 2944 2943 2945 2948 2950 2950 2949 2949 2948 2948 2949 2948
3020 3020 3015 3011 3010 3010 3010 3009 3007 3006 3003 2998 2996 2994 2990 2985 2982 2977 2970 2966 2964 2959 2954 2949 2943 2937 2933 2931 2929 2929 2928 2927 2926 2926 2928 2929 2932 2935 2936 2936 2935 2935 2937 2939
3012 3009 3007 3001 3004 3004 3001 3001 3000 2996 2993 2991 2988 2984 2981 2976 2973 2967 2963 2958 2954 2948 2942 2936 2929 2922 2916 2911 2909 2909 2906 2904 2904 2906 2908 2910 2913 2916 2921 2923 2923 2923 2925 2928